Location: Newark
(48.6461°N, 4.3644°W)
Time: 10:33:25
(UTC+00:00)

Altair - Pass Details

Date: 20 January 2021
Orbit: 1501 x 1682 km, 47.2° (Epoch: 07 March)

Event Time Altitude Azimuth Distance (km) Brightness Sun altitude
Rises 04:36:46 0° 188° (S) 4,856 10.0 -33.3°
Reaches altitude 10° 04:40:47 10° 175° (S) 3,896 9.6 -32.6°
Maximum altitude 04:47:51 22° 129° (SE) 3,063 9.4 -31.4°
Drops below altitude 10° 04:54:59 10° 84° (E) 3,948 10.6 -30.3°
Sets 04:59:04 0° 70° (ENE) 4,938 11.2 -29.6°
